DW2819 Weather Reports


Display with metric or nautical units.
time (UTC)temp
F
wind
direction
speed
MPH
gust
MPH
rain 1hr
in
rain 24hr
in
rain mn
in
humidity
%
barometer
mb
20260507033007 37 41 0.0 2.0 0.00 0.00 0.00 53 1015.2
20260507032507 37 20 0.0 2.0 0.00 0.00 0.00 54 1015.3
20260507032008 37 147 0.0 1.0 0.00 0.00 0.00 55 1015.3
20260507031008 37 152 0.0 1.0 0.00 0.00 0.00 55 1015.1
20260507030502 37 151 0.0 1.0 0.00 0.00 0.00 53 1015.1
20260507030010 36 104 0.0 2.0 0.00 0.00 0.00 53 1015.0
20260507025001 36 59 0.0 2.0 0.00 0.00 0.00 53 1014.9
20260507024501 36 69 0.0 2.0 0.00 0.00 0.00 56 1015.0
20260507023500 36 78 0.0 2.0 0.00 0.00 0.00 58 1015.0
20260507022930 36 78 0.0 2.0 0.00 0.00 0.00 56 1015.0
20260507022432 36 65 0.0 2.0 0.00 0.00 0.00 56 1015.0
20260507021924 37 73 0.0 1.0 0.00 0.00 0.00 53 1015.1
20260507021425 37 59 0.0 3.0 0.00 0.00 0.00 54 1015.0
20260507020918 37 51 1.0 3.0 0.00 0.00 0.00 52 1015.1
20260507020420 37 65 0.0 4.0 0.00 0.00 0.00 52 1015.1
20260507015922 37 54 1.0 4.0 0.00 0.00 0.00 50 1015.1
20260507015407 37 76 0.0 3.0 0.00 0.00 0.00 49 1015.0
20260507014414 37 63 0.0 3.0 0.00 0.00 0.00 51 1014.9
20260507013908 37 79 0.0 3.0 0.00 0.00 0.00 50 1014.9
20260507013408 37 65 0.0 2.0 0.00 0.00 0.00 49 1014.9
20260507012905 37 61 1.0 2.0 0.00 0.00 0.00 49 1014.9
20260507012404 37 71 0.0 2.0 0.00 0.00 0.00 51 1014.9
20260507011905 37 68 1.0 2.0 0.00 0.00 0.00 50 1014.9
20260507011402 37 82 0.0 2.0 0.00 0.00 0.00 51 1015.0
20260507005904 37 314 0.0 2.0 0.00 0.00 0.00 51 1014.9
20260507003902 37 76 0.0 2.0 0.00 0.00 0.00 52 1014.8
20260507003401 37 92 0.0 2.0 0.00 0.00 0.00 52 1014.8
20260507002902 37 66 0.0 2.0 0.00 0.00 0.00 52 1014.7
20260507002404 37 123 0.0 3.0 0.00 0.00 0.00 51 1014.8
20260507001904 37 83 0.0 3.0 0.00 0.00 0.00 52 1014.8
20260507001404 37 312 0.0 1.0 0.00 0.00 0.00 53 1014.8
20260507000904 37 337 0.0 1.0 0.00 0.00 0.00 52 1014.7
20260507000401 37 337 0.0 0.0 0.00 0.00 0.00 53 1014.8
20260506235859 37 337 0.0 0.0 0.00 0.00 0.00 55 1014.7
20260506235357 37 337 0.0 0.0 0.00 0.00 0.00 56 1014.6
20260506234900 38 337 0.0 0.0 0.00 0.00 0.00 52 1014.8
20260506234333 38 337 0.0 0.0 0.00 0.00 0.00 49 1014.8
20260506233833 38 337 0.0 1.0 0.00 0.00 0.00 49 1014.8
20260506233333 38 337 0.0 1.0 0.00 0.00 0.00 50 1014.8
20260506232830 38 337 0.0 1.0 0.00 0.00 0.00 49 1014.8
20260506232332 38 337 0.0 1.0 0.00 0.00 0.00 48 1014.7
20260506231830 38 334 0.0 1.0 0.00 0.00 0.00 48 1014.6
20260506231332 39 334 0.0 1.0 0.00 0.00 0.00 49 1014.7
20260506230832 39 334 0.0 2.0 0.00 0.00 0.00 48 1014.7
20260506230319 39 327 0.0 1.0 0.00 0.00 0.00 47 1014.7
20260506225244 39 323 0.0 2.0 0.00 0.00 0.00 46 1014.7
20260506224745 39 4 0.0 2.0 0.00 0.00 0.00 47 1014.7
20260506223732 39 0 0.0 1.0 0.00 0.00 0.00 45 1014.7
20260506223233 39 0 0.0 1.0 0.00 0.00 0.00 45 1014.7
20260506222736 40 0 0.0 1.0 0.00 0.00 0.00 46 1014.7
20260506222233 40 0 0.0 1.0 0.00 0.00 0.00 46 1014.6
20260506221729 40 0 0.0 2.0 0.00 0.00 0.00 45 1014.6
20260506221232 40 13 1.0 2.0 0.00 0.00 0.00 44 1014.6
20260506220731 40 343 1.0 2.0 0.00 0.00 0.00 44 1014.5
20260506215709 40 351 1.0 3.0 0.00 0.00 0.00 45 1014.5
20260506215205 40 350 1.0 3.0 0.00 0.00 0.00 45 1014.4
20260506214208 40 347 1.0 2.0 0.00 0.00 0.00 45 1014.4
20260506213205 40 340 1.0 2.0 0.00 0.00 0.00 45 1014.4
20260506212704 40 340 1.0 3.0 0.00 0.00 0.00 44 1014.4
20260506212210 40 343 1.0 3.0 0.00 0.00 0.00 45 1014.3
20260506211704 40 336 1.0 3.0 0.00 0.00 0.00 45 1014.4
20260506211203 40 343 1.0 2.0 0.00 0.00 0.00 46 1014.3
20260506210704 40 347 0.0 3.0 0.00 0.00 0.00 47 1014.3
20260506210207 40 341 1.0 3.0 0.00 0.00 0.00 46 1014.3
20260506205707 40 329 1.0 2.0 0.00 0.00 0.00 47 1014.2
20260506205206 40 314 1.0 1.0 0.00 0.00 0.00 48 1014.2
20260506204706 40 314 1.0 1.0 0.00 0.00 0.00 49 1014.3
20260506204209 40 310 0.0 1.0 0.00 0.00 0.00 47 1014.3
20260506203709 40 302 1.0 1.0 0.00 0.00 0.00 48 1014.2
20260506202711 40 302 1.0 2.0 0.00 0.00 0.00 47 1014.2
20260506202211 40 302 1.0 2.0 0.00 0.00 0.00 47 1014.2
20260506201713 39 283 0.0 2.0 0.00 0.00 0.00 48 1014.2
20260506201219 39 247 1.0 1.0 0.00 0.00 0.00 52 1014.1
20260506200206 40 176 0.0 0.0 0.00 0.00 0.00 54 1014.2
20260506195704 40 176 0.0 0.0 0.00 0.00 0.00 54 1014.2
20260506195203 40 176 0.0 0.0 0.00 0.00 0.00 56 1014.1
20260506194707 40 176 0.0 0.0 0.00 0.00 0.00 54 1014.0
20260506194205 41 176 0.0 0.0 0.00 0.00 0.00 53 1014.1
20260506193712 41 176 0.0 0.0 0.00 0.00 0.00 56 1014.0
20260506193205 41 176 0.0 0.0 0.00 0.00 0.00 55 1013.9
20260506192706 41 176 0.0 0.0 0.00 0.00 0.00 55 1013.9
20260506190648 43 176 0.0 0.0 0.00 0.00 0.00 55 1013.9
20260506190146 43 176 0.0 0.0 0.00 0.00 0.00 56 1013.9
20260506185641 44 176 0.0 0.0 0.00 0.00 0.00 56 1013.9
20260506184642 44 176 0.0 0.0 0.00 0.00 0.00 51 1013.8
20260506183637 44 176 0.0 0.0 0.00 0.00 0.00 58 1013.8
20260506183137 44 176 0.0 0.0 0.00 0.00 0.00 59 1013.8
20260506182632 45 176 0.0 0.0 0.00 0.00 0.00 60 1013.8
20260506182129 45 176 0.0 0.0 0.00 0.00 0.00 61 1013.8
20260506181629 45 176 0.0 0.0 0.00 0.00 0.00 60 1013.7
20260506181120 45 176 0.0 0.0 0.00 0.00 0.00 63 1013.7
20260506180620 46 176 0.0 1.0 0.00 0.00 0.00 61 1013.7
20260506180122 46 176 0.0 1.0 0.00 0.00 0.00 62 1013.7
20260506175615 46 175 0.0 1.0 0.00 0.00 0.00 59 1013.8
20260506175113 47 164 0.0 2.0 0.00 0.00 0.00 59 1013.7
20260506174612 47 164 1.0 2.0 0.00 0.00 0.00 59 1013.6
20260506173610 47 116 0.0 1.0 0.00 0.00 0.00 59 1013.7
20260506173110 47 133 0.0 3.0 0.00 0.00 0.00 58 1013.7
20260506172606 47 118 0.0 3.0 0.00 0.00 0.00 57 1013.6
20260506172108 48 148 1.0 3.0 0.00 0.00 0.00 57 1013.6
20260506171606 48 148 0.0 3.0 0.00 0.00 0.00 56 1013.5
20260506171107 48 197 1.0 3.0 0.00 0.00 0.00 55 1013.5
20260506170601 48 345 1.0 2.0 0.00 0.00 0.00 54 1013.5
20260506170057 48 200 0.0 2.0 0.00 0.00 0.00 55 1013.4
20260506165555 49 94 0.0 3.0 0.00 0.00 0.00 56 1013.3
20260506165055 49 199 0.0 3.0 0.00 0.00 0.00 55 1013.3
20260506164553 49 127 0.0 3.0 0.00 0.00 0.00 55 1013.3
20260506164047 49 113 0.0 3.0 0.00 0.00 0.00 54 1013.3
20260506163549 49 168 1.0 3.0 0.00 0.00 0.00 52 1013.2
20260506163043 49 97 1.0 4.0 0.00 0.00 0.00 51 1013.3
20260506162540 50 135 1.0 4.0 0.00 0.00 0.00 54 1013.3
20260506162039 50 128 1.0 3.0 0.00 0.00 0.00 50 1013.3
20260506161535 50 61 1.0 3.0 0.00 0.00 0.00 52 1013.3
20260506161034 50 140 2.0 3.0 0.00 0.00 0.00 49 1013.2
20260506160532 50 217 1.0 3.0 0.00 0.00 0.00 54 1013.3
20260506160035 50 320 1.0 3.0 0.00 0.00 0.00 54 1013.3
20260506155533 50 224 0.0 4.0 0.00 0.00 0.00 54 1013.3
20260506155029 50 148 2.0 4.0 0.00 0.00 0.00 51 1013.3
20260506154529 50 192 0.0 4.0 0.00 0.00 0.00 53 1013.4
20260506154030 51 223 2.0 4.0 0.00 0.00 0.00 50 1013.3
20260506153529 51 152 1.0 3.0 0.00 0.00 0.00 52 1013.4
20260506153029 51 142 1.0 6.0 0.00 0.00 0.00 50 1013.3
20260506152532 51 135 1.0 6.0 0.00 0.00 0.00 49 1013.3
20260506152018 51 133 1.0 4.0 0.00 0.00 0.00 48 1013.3
20260506151518 51 157 2.0 5.0 0.00 0.00 0.00 47 1013.3
20260506150508 51 147 3.0 6.0 0.00 0.00 0.00 45 1013.4
20260506150016 51 179 1.0 3.0 0.00 0.00 0.00 43 1013.3
20260506145510 51 93 1.0 2.0 0.00 0.00 0.00 45 1013.4
20260506145008 51 254 0.0 2.0 0.00 0.00 0.00 47 1013.5
20260506144504 51 78 1.0 3.0 0.00 0.00 0.00 49 1013.4
20260506144003 51 155 1.0 3.0 0.00 0.00 0.00 49 1013.5
20260506143502 51 206 1.0 2.0 0.00 0.00 0.00 48 1013.4
20260506143004 51 169 1.0 4.0 0.00 0.00 0.00 47 1013.5
20260506142507 51 131 2.0 4.0 0.00 0.00 0.00 49 1013.4
20260506141506 51 118 1.0 5.0 0.00 0.00 0.00 46 1013.4
20260506141000 51 188 2.0 5.0 0.00 0.00 0.00 48 1013.3
20260506140457 51 39 1.0 3.0 0.00 0.00 0.00 45 1013.4
20260506135957 51 116 1.0 2.0 0.00 0.00 0.00 45 1013.4
20260506135458 51 131 1.0 3.0 0.00 0.00 0.00 45 1013.4
20260506134932 51 317 1.0 3.0 0.00 0.00 0.00 46 1013.4
20260506134437 51 186 1.0 2.0 0.00 0.00 0.00 46 1013.4
20260506133936 51 171 0.0 2.0 0.00 0.00 0.00 43 1013.5
20260506133436 51 264 0.0 1.0 0.00 0.00 0.00 39 1013.6
20260506132929 51 269 0.0 3.0 0.00 0.00 0.00 37 1013.5
20260506132435 51 7 2.0 3.0 0.00 0.00 0.00 36 1013.4
20260506131928 51 197 0.0 2.0 0.00 0.00 0.00 35 1013.4
20260506131409 52 310 1.0 4.0 0.00 0.00 0.00 35 1013.3
20260506130907 52 207 2.0 4.0 0.00 0.00 0.00 33 1013.2
20260506130405 51 172 1.0 6.0 0.00 0.00 0.00 33 1013.3
20260506125903 51 293 1.0 6.0 0.00 0.00 0.00 32 1013.2
20260506125408 51 319 2.0 6.0 0.00 0.00 0.00 32 1013.2
20260506124901 52 341 3.0 6.0 0.00 0.00 0.00 32 1013.3
20260506123902 52 347 1.0 4.0 0.00 0.00 0.00 32 1013.3
20260506122910 53 283 2.0 5.0 0.00 0.00 0.00 31 1013.3
20260506122413 53 326 2.0 5.0 0.00 0.00 0.00 30 1013.2
20260506121904 53 227 2.0 5.0 0.00 0.00 0.00 32 1013.2
20260506120907 52 288 2.0 4.0 0.00 0.00 0.00 33 1013.3
20260506120408 52 285 2.0 4.0 0.00 0.00 0.00 32 1013.3
20260506115904 52 333 3.0 5.0 0.00 0.00 0.00 31 1013.3
20260506115408 53 255 2.0 6.0 0.00 0.00 0.00 32 1013.2
20260506114906 53 324 2.0 6.0 0.00 0.00 0.00 31 1013.3
20260506114405 53 199 3.0 5.0 0.00 0.00 0.00 31 1013.3
20260506113404 52 313 1.0 3.0 0.00 0.00 0.00 33 1013.3
20260506112903 52 319 1.0 2.0 0.00 0.00 0.00 35 1013.2
20260506112404 51 90 1.0 2.0 0.00 0.00 0.00 35 1013.3
20260506111902 50 340 0.0 3.0 0.00 0.00 0.00 37 1013.4
20260506111408 50 223 0.0 3.0 0.00 0.00 0.00 36 1013.4
20260506110907 51 292 1.0 3.0 0.00 0.00 0.00 34 1013.5
20260506110406 51 248 1.0 3.0 0.00 0.00 0.00 33 1013.4
20260506105905 51 314 1.0 9.0 0.00 0.00 0.00 32 1013.3
20260506104906 52 353 4.0 6.0 0.00 0.00 0.00 30 1013.3
20260506103905 51 350 1.0 11.0 0.00 0.00 0.00 31 1013.3
20260506102906 53 331 4.0 7.0 0.00 0.00 0.00 32 1013.2
20260506102404 53 343 2.0 4.0 0.00 0.00 0.00 32 1013.1
20260506101903 53 350 2.0 5.0 0.00 0.00 0.00 32 1013.1
20260506100906 51 164 2.0 6.0 0.00 0.00 0.00 33 1013.2
20260506100404 51 323 2.0 6.0 0.00 0.00 0.00 32 1013.2
20260506095901 50 7 1.0 4.0 0.00 0.00 0.00 35 1013.2
20260506094903 51 0 2.0 6.0 0.00 0.00 0.00 34 1013.2
20260506094407 51 295 2.0 5.0 0.00 0.00 0.00 36 1013.0
20260506093902 51 0 3.0 5.0 0.00 0.00 0.00 35 1013.1
20260506092909 51 310 2.0 9.0 0.00 0.00 0.00 33 1013.1
20260506092404 52 21 3.0 5.0 0.00 0.00 0.00 33 1012.8
20260506091406 51 56 2.0 6.0 0.00 0.00 0.00 35 1012.8
20260506090903 50 336 1.0 6.0 0.00 0.00 0.00 35 1012.9
20260506090407 50 316 2.0 6.0 0.00 0.00 0.00 36 1012.9
20260506085404 50 306 3.0 6.0 0.00 0.00 0.00 36 1012.9
20260506084406 50 0 2.0 6.0 0.00 0.00 0.00 38 1012.8
20260506083903 51 306 1.0 6.0 0.00 0.00 0.00 38 1012.7
20260506083405 50 300 1.0 4.0 0.00 0.00 0.00 40 1012.8
20260506082906 50 235 2.0 4.0 0.00 0.00 0.00 38 1012.9
20260506082407 51 337 2.0 5.0 0.00 0.00 0.00 37 1012.9
20260506081903 51 316 3.0 9.0 0.00 0.00 0.00 37 1012.8
20260506081403 50 283 4.0 9.0 0.00 0.00 0.00 37 1012.7
20260506080904 49 340 1.0 6.0 0.00 0.00 0.00 40 1012.7
20260506080406 49 347 3.0 6.0 0.00 0.00 0.00 38 1012.7
20260506073407 49 282 1.0 6.0 0.00 0.00 0.00 43 1012.5
20260506072903 49 100 2.0 5.0 0.00 0.00 0.00 45 1012.5
20260506072407 49 319 2.0 7.0 0.00 0.00 0.00 44 1012.5
20260506071909 49 4 3.0 7.0 0.00 0.00 0.00 43 1012.5
20260506071404 49 264 2.0 4.0 0.00 0.00 0.00 47 1012.4
20260506070903 49 196 2.0 4.0 0.00 0.00 0.00 47 1012.4
20260506070404 48 324 1.0 5.0 0.00 0.00 0.00 48 1012.3
20260506062404 46 350 3.0 6.0 0.00 0.00 0.00 53 1012.2
20260506061905 46 307 4.0 6.0 0.00 0.00 0.00 56 1012.2
20260506061405 46 0 2.0 5.0 0.00 0.00 0.00 56 1012.2
20260506060902 45 357 1.0 4.0 0.00 0.00 0.00 60 1012.0
20260506060403 45 275 1.0 4.0 0.00 0.00 0.00 61 1012.0
20260506051407 41 285 2.0 3.0 0.00 0.00 0.00 71 1011.6
20260506050906 41 293 2.0 3.0 0.00 0.00 0.00 72 1011.5
20260506050405 40 302 1.0 3.0 0.00 0.00 0.00 72 1011.5
20260506044907 39 316 2.0 5.0 0.00 0.00 0.00 76 1011.3
20260506044408 38 252 1.0 3.0 0.00 0.00 0.00 78 1011.2
20260506043902 38 45 1.0 3.0 0.00 0.00 0.00 81 1011.2
20260506042907 37 285 0.0 2.0 0.00 0.00 0.00 82 1011.0
20260506042407 36 345 0.0 3.0 0.00 0.00 0.00 85 1011.1
20260506041906 35 303 0.0 3.0 0.00 0.00 0.00 85 1011.0
20260506041404 35 353 0.0 3.0 0.00 0.00 0.00 87 1011.0
20260506040902 34 355 1.0 3.0 0.00 0.00 0.00 87 1011.0
20260506040404 33 1 1.0 2.0 0.00 0.00 0.00 88 1011.0
20260506035906 33 252 0.0 1.0 0.00 0.00 0.00 88 1010.9
20260506034906 32 252 0.0 0.0 0.00 0.00 0.00 88 1010.8
20260506034405 32 252 0.0 0.0 0.00 0.00 0.00 88 1010.8
20260506033905 32 252 0.0 0.0 0.00 0.00 0.00 88 1010.7
20260506033403 31 252 0.0 0.0 0.00 0.00 0.00 88 1010.7